Location: Cicognara
(44.9500°N, 10.4667°E)
Time: 23:39:43
(UTC+00:00)

Meteor 2-5 Rocket - Pass Details

Date: 20 June 2021
Orbit: 833 x 911 km, 81.2° (Epoch: 23 July)

Event Time Altitude Azimuth Distance (km) Brightness Sun altitude
Exits shadow 20:18:39 12° 150° (SSE) 2,282 5.3 -10.1°
Maximum altitude 20:23:05 34° 90° (E) 1,369 4.5 -10.6°
Drops below altitude 10° 20:28:03 10° 28° (NNE) 2,485 6.4 -11.2°
Sets 20:30:42 0° 19° (NNE) 3,437 7.3 -11.5°
